Location: Proctor
(47.8934°N, 114.3048°W)
Time: 11:27:30
(UTC+00:00)

Transit 4A - Pass Details

Date: 29 June 2024
Orbit: 870 x 973 km, 66.8° (Epoch: 13 July)

Event Time Altitude Azimuth Distance (km) Brightness Sun altitude
Rises 05:55:48 0° 245° (WSW) 3,456 10.9 -15.1°
Reaches altitude 10° 05:58:31 10° 255° (WSW) 2,517 10.3 -15.3°
Maximum altitude 06:03:44 34° 319° (NW) 1,412 9.5 -15.6°
Drops below altitude 10° 06:09:01 10° 23° (NNE) 2,539 10.8 -16.0°
Sets 06:11:47 0° 33° (NNE) 3,490 11.4 -16.2°
